Modesto, Modesto City-County-Sham Field, United States
Lat: 37.62N, Lon: 120.95W
Local Info
Past Weather Observations for Yesterday

NOTE: This archive is for the closest National Weather Service station to Modesto, Modesto City-County-Sham Field. Information may differ from the station used for current weather conditions.

Click here for Long-term Archive

Time Weather Temperature Dewpoint Humidity Pressure Winds Precip Visibility
23:53
Clear
45°F / 7°C 41°F / 5°C 87% 30.33 in
(1027 mb)
Calm - 8SM
22:53
Clear
45°F / 7°C 41°F / 5°C 87% 30.33 in
(1027 mb)
Calm - 7SM
21:53
Clear
46°F / 8°C 43°F / 6°C 87% 30.3 in
(1026 mb)
Calm - 9SM
20:53
Clear
46°F / 8°C 43°F / 6°C 87% 30.3 in
(1026 mb)
Calm - 10SM
19:53
Mostly Cloudy
48°F / 9°C 43°F / 6°C 82% 30.3 in
(1026 mb)
Calm - 10SM
18:53
Clear
50°F / 10°C 45°F / 7°C 82% 30.3 in
(1026 mb)
Calm - 10SM
17:53
Clear
54°F / 12°C 45°F / 7°C 72% 30.27 in
(1025 mb)
Calm - 10SM
16:53
Clear
59°F / 15°C 43°F / 6°C 55% 30.27 in
(1025 mb)
E 4.6 mph
(E 7 kph)
- 10SM
15:53
Clear
61°F / 16°C 43°F / 6°C 52% 30.27 in
(1025 mb)
ENE 5.8 mph
(ENE 9 kph)
- 10SM
14:53
Clear
63°F / 17°C 39°F / 4°C 42% 30.27 in
(1025 mb)
NNE 4.6 mph
(NNE 7 kph)
- 10SM
13:53
Clear
63°F / 17°C 39°F / 4°C 42% 30.3 in
(1026 mb)
N 4.6 mph
(N 7 kph)
- 10SM
12:53
Clear
61°F / 16°C 39°F / 4°C 45% 30.3 in
(1026 mb)
NNW 8.1 mph
(NNW 13 kph)
- 10SM
11:53
Clear
59°F / 15°C 43°F / 6°C 55% 30.3 in
(1026 mb)
NNW 6.9 mph
(NNW 11 kph)
- 10SM
10:53
Clear
57°F / 14°C 43°F / 6°C 59% 30.33 in
(1027 mb)
NW 10.4 mph
(NW 17 kph)
- 10SM
09:53
Clear
55°F / 13°C 45°F / 7°C 67% 30.33 in
(1027 mb)
NW 12.7 mph
(NW 20 kph)
- 10SM
08:53
Clear
52°F / 11°C 45°F / 7°C 77% 30.3 in
(1026 mb)
NW 13.8 mph
(NW 22 kph)
- 10SM
07:53
Clear
48°F / 9°C 45°F / 7°C 87% 30.27 in
(1025 mb)
NW 18.4 mph
(NW 30 kph)
- 10SM
06:53
Clear
50°F / 10°C 45°F / 7°C 82% 30.27 in
(1025 mb)
NW 18.4 mph
(NW 30 kph)
- 10SM
05:53
Partly Cloudy
Fog And Mist
50°F / 10°C 46°F / 8°C 88% 30.24 in
(1024 mb)
NW 13.8 mph
(NW 22 kph)
- 6SM
05:04
Mostly Cloudy
Fog And Mist
52°F / 11°C 46°F / 8°C 82% 30.24 in
(1024 mb)
NW 16.1 mph
(NW 26 kph)
- 6SM
04:53
Partly Cloudy
Fog And Mist
52°F / 11°C 46°F / 8°C 82% 30.24 in
(1024 mb)
NW 16.1 mph
(NW 26 kph)
- 6SM
04:23
Partly Cloudy
Fog And Mist
52°F / 11°C 48°F / 9°C 88% 30.24 in
(1024 mb)
NW 15 mph
(NW 24 kph)
- 5SM
03:53
Overcast
Fog And Mist
52°F / 11°C 48°F / 9°C 88% 30.24 in
(1024 mb)
NW 11.5 mph
(NW 19 kph)
- 5SM
02:53
Overcast
Fog And Mist
52°F / 11°C 52°F / 11°C 100% 30.21 in
(1023 mb)
NW 13.8 mph
(NW 22 kph)
- 6SM
02:08
Overcast
Fog And Mist
52°F / 11°C 52°F / 11°C 100% 30.21 in
(1023 mb)
NW 11.5 mph
(NW 19 kph)
- 6SM
01:53
Overcast
Fog And Mist
54°F / 12°C 52°F / 11°C 94% 30.21 in
(1023 mb)
NW 13.8 mph
(NW 22 kph)
- 5SM
01:44
Overcast
Fog And Mist
54°F / 12°C 52°F / 11°C 94% 30.21 in
(1023 mb)
NW 18.4 mph
(NW 30 kph)
- 3SM
01:34
Overcast
Fog And Mist
54°F / 12°C 52°F / 11°C 94% 30.21 in
(1023 mb)
NW 11.5 mph
(NW 19 kph)
- 1 1/2SM
01:21
Obscured
Fog
54°F / 12°C 52°F / 11°C 94% 30.21 in
(1023 mb)
NW 11.5 mph
(NW 19 kph)
- 1/2SM
01:08
Obscured
Fog
54°F / 12°C 54°F / 12°C 100% 30.21 in
(1023 mb)
NW 11.5 mph
(NW 19 kph)
- 1/4SM
00:53
Obscured
Fog
54°F / 12°C 52°F / 11°C 94% 30.24 in
(1024 mb)
NW 11.5 mph
(NW 19 kph)
- 1/2SM
00:26
Obscured
Fog
54°F / 12°C 52°F / 11°C 94% 30.21 in
(1023 mb)
NW 10.4 mph
(NW 17 kph)
- 1/4SM
00:18
Obscured
Fog
54°F / 12°C 52°F / 11°C 94% 30.24 in
(1024 mb)
NW 13.8 mph
(NW 22 kph)
- 1/2SM
Time Weather Temperature Dewpoint Humidity Pressure Winds Precip Visibility


Weather for websites

WeatherForYou.com, LLC is not responsible for any damages or problems caused by this service. Current weather conditions are obtained from the closest station including government and personal stations which may have varying degrees of accuracy. Weather forecasts are derived from the NOAA NDFD. Like all things, this site belongs to Jesus Christ... He just trusts me to maintain it. If you have any questions or comments email webmaster@weatherforyou.com

Copyright © 2014, WeatherForYou.com LLC. All rights reserved.